When you browse on this site, cookies collect data to enhance your experience and personalize the content and advertising you see.
Visit our Privacy Policy to learn more. By continuing to use the site, you agree to this use of cookies and data.
  • In Austria
  • List of Countries
  • For 7 days
  • Water Temperature
  • Weather Map
  • News
  • Weather Widgets
  • user-avatar
    Login

    Hourly Weather Zatysivka

    Today, 13 December, Friday

    Time Temperature Precipitation Wind Pressure Humidity
    00:00 +3°C° 0 mm 5 mps 742 mmHg 91%
    01:00 +3°C° 0 mm 5 mps 742 mmHg 92%
    02:00 +4°C° 0 mm 4 mps 742 mmHg 92%
    03:00 +4°C° 0 mm 4 mps 741 mmHg 92%
    04:00 +3°C° 0 mm 5 mps 740 mmHg 95%
    05:00 +3°C° 0.2 mm 6 mps 740 mmHg 99%
    06:00 +3°C° 0.4 mm 6 mps 739 mmHg 99%
    07:00 +3°C° 0.4 mm 7 mps 739 mmHg 98%
    08:00 +3°C° 0.2 mm 7 mps 738 mmHg 97%
    09:00 +2°C° 0 mm 8 mps 738 mmHg 95%
    10:00 +2°C° 0.2 mm 8 mps 737 mmHg 97%
    11:00 +4°C° 0 mm 8 mps 737 mmHg 92%
    12:00 +6°C° 0 mm 8 mps 737 mmHg 88%
    13:00 +6°C° 0 mm 7 mps 736 mmHg 88%
    14:00 +6°C° 0 mm 7 mps 736 mmHg 88%
    15:00 +6°C° 0 mm 7 mps 735 mmHg 88%
    16:00 +7°C° 0 mm 6 mps 735 mmHg 90%
    17:00 +7°C° 0 mm 5 mps 735 mmHg 92%
    18:00 +7°C° 0 mm 5 mps 735 mmHg 92%
    19:00 +6°C° 0 mm 5 mps 735 mmHg 92%
    20:00 +6°C° 0 mm 5 mps 735 mmHg 93%
    21:00 +5°C° 0 mm 5 mps 735 mmHg 93%
    22:00 +3°C° 0 mm 5 mps 735 mmHg 94%
    23:00 +4°C° 0 mm 4 mps 735 mmHg 94%

    Tomorrow, 14 December, Saturday

    Time Temperature Precipitation Wind Pressure Humidity
    00:00 +3°C° 0 mm 4 mps 735 mmHg 94%
    01:00 +3°C° 0 mm 3 mps 735 mmHg 94%
    02:00 +3°C° 0 mm 3 mps 735 mmHg 93%
    03:00 +4°C° 0 mm 3 mps 736 mmHg 92%
    04:00 +4°C° 0 mm 3 mps 735 mmHg 91%
    05:00 +4°C° 0 mm 3 mps 735 mmHg 91%
    06:00 +4°C° 0 mm 3 mps 735 mmHg 91%
    07:00 +3°C° 0 mm 3 mps 736 mmHg 91%
    08:00 +3°C° 0 mm 3 mps 736 mmHg 90%
    09:00 +3°C° 0 mm 3 mps 737 mmHg 90%
    10:00 +5°C° 0 mm 2 mps 737 mmHg 89%
    11:00 +7°C° 0 mm 2 mps 738 mmHg 88%
    12:00 +8°C° 0 mm 3 mps 739 mmHg 86%
    13:00 +8°C° 0 mm 4 mps 739 mmHg 86%
    14:00 +8°C° 0 mm 5 mps 739 mmHg 87%
    15:00 +8°C° 0 mm 4 mps 739 mmHg 88%
    16:00 +8°C° 0 mm 3 mps 740 mmHg 92%
    17:00 +8°C° 0 mm 2 mps 740 mmHg 94%
    18:00 +7°C° 0 mm 2 mps 741 mmHg 95%
    19:00 +7°C° 0 mm 2 mps 742 mmHg 97%
    20:00 +7°C° 0 mm 2 mps 742 mmHg 98%
    21:00 +6°C° 0 mm 2 mps 743 mmHg 98%
    22:00 +5°C° 1.5 mm 3 mps 744 mmHg 100%
    23:00 +5°C° 0.7 mm 4 mps 745 mmHg 100%

    Day after tomorrow, 15 December, Sunday

    Time Temperature Precipitation Wind Pressure Humidity
    00:00 +3°C° 0 mm 5 mps 745 mmHg 99%
    01:00 +3°C° 0 mm 3 mps 746 mmHg 100%
    02:00 +2°C° 0 mm 3 mps 747 mmHg 100%
    03:00 +2°C° 0 mm 3 mps 748 mmHg 99%
    04:00 +2°C° 0 mm 2 mps 748 mmHg 100%
    05:00 +2°C° 0 mm 2 mps 749 mmHg 99%
    06:00 +2°C° 0 mm 2 mps 750 mmHg 99%
    07:00 +2°C° 0 mm 2 mps 751 mmHg 99%
    08:00 +1°C° 0 mm 2 mps 751 mmHg 98%
    09:00 0°C° 0 mm 3 mps 751 mmHg 97%
    10:00 +1°C° 0 mm 3 mps 752 mmHg 97%
    11:00 +1°C° 0 mm 3 mps 753 mmHg 96%
    12:00 +1°C° 0 mm 4 mps 753 mmHg 94%
    13:00 +3°C° 0 mm 3 mps 754 mmHg 92%
    14:00 +5°C° 0 mm 2 mps 754 mmHg 91%
    15:00 +6°C° 0 mm 2 mps 754 mmHg 91%
    16:00 +4°C° 0 mm 4 mps 754 mmHg 92%
    17:00 +3°C° 0 mm 3 mps 754 mmHg 94%
    18:00 +3°C° 0 mm 3 mps 755 mmHg 95%
    19:00 +3°C° 0 mm 3 mps 755 mmHg 94%
    20:00 +2°C° 0 mm 3 mps 754 mmHg 94%
    21:00 +3°C° 0 mm 2 mps 754 mmHg 94%
    22:00 +1°C° 0 mm 3 mps 755 mmHg 93%
    23:00 +1°C° 0 mm 3 mps 755 mmHg 94%

    16 December, Monday

    Time Temperature Precipitation Wind Pressure Humidity
    00:00 +2°C° 0 mm 2 mps 755 mmHg 93%
    01:00 +2°C° 0 mm 2 mps 755 mmHg 91%
    02:00 +2°C° 0 mm 2 mps 755 mmHg 89%
    03:00 +2°C° 0 mm 2 mps 755 mmHg 87%
    04:00 +1°C° 0 mm 3 mps 755 mmHg 87%
    05:00 +2°C° 0 mm 2 mps 755 mmHg 85%
    06:00 +2°C° 0 mm 2 mps 755 mmHg 84%
    07:00 +2°C° 0 mm 2 mps 755 mmHg 84%
    08:00 +2°C° 0 mm 2 mps 755 mmHg 84%
    09:00 +2°C° 0 mm 2 mps 756 mmHg 84%
    10:00 +3°C° 0 mm 2 mps 756 mmHg 85%
    11:00 +5°C° 0 mm 2 mps 756 mmHg 86%
    12:00 +7°C° 0 mm 2 mps 756 mmHg 85%
    13:00 +8°C° 0 mm 3 mps 755 mmHg 82%
    14:00 +8°C° 0 mm 3 mps 755 mmHg 83%

    17 December, Tuesday

    Time Temperature Precipitation Wind Pressure Humidity

    18 December, Wednesday

    Time Temperature Precipitation Wind Pressure Humidity
    Show more